Time,TemperatureF,DewpointF,PressureIn,WindDirection,WindDirectionDegrees,WindSpeedMPH,WindSpeedGustMPH,Humidity,HourlyPrecipIn,Conditions,Clouds,dailyrainin,SoftwareType,DateUTC
2013-06-29 00:01:00,75.1,71.3,29.57,ENE,75,1.5,3.0,88,0.00,,---,0.03,VWS V14.01,2013-06-29 04:01:00,
2013-06-29 00:02:00,75.1,71.3,29.57,SW,226,1.5,3.0,88,0.00,,---,0.00,VWS V14.01,2013-06-29 04:02:00,
2013-06-29 00:07:00,75.1,71.3,29.57,West,266,0.0,3.0,88,0.00,,---,0.00,VWS V14.01,2013-06-29 04:07:00,
2013-06-29 00:12:00,75.1,71.3,29.57,WSW,249,0.0,3.0,88,0.00,,---,0.00,VWS V14.01,2013-06-29 04:12:00,
2013-06-29 00:17:00,75.1,71.3,29.58,NNE,20,0.0,3.0,88,0.00,,---,0.00,VWS V14.01,2013-06-29 04:17:00,
2013-06-29 00:22:00,75.0,71.2,29.58,NW,326,0.0,3.0,88,0.00,,---,0.00,VWS V14.01,2013-06-29 04:22:00,
2013-06-29 00:27:00,75.0,71.2,29.57,WSW,243,1.5,3.0,88,0.00,,---,0.00,VWS V14.01,2013-06-29 04:27:00,
2013-06-29 00:32:00,74.9,71.1,29.57,NW,304,1.5,1.5,88,0.00,,---,0.00,VWS V14.01,2013-06-29 04:32:00,
2013-06-29 00:37:00,74.9,71.1,29.57,West,273,0.0,2.0,88,0.00,,---,0.00,VWS V14.01,2013-06-29 04:37:00,
2013-06-29 00:42:00,74.8,71.3,29.57,West,277,0.0,2.0,89,0.00,,---,0.00,VWS V14.01,2013-06-29 04:42:00,
2013-06-29 00:47:00,74.8,71.3,29.56,West,264,0.0,2.0,89,0.00,,---,0.00,VWS V14.01,2013-06-29 04:47:00,
2013-06-29 00:52:00,74.7,71.2,29.56,NNW,344,0.0,2.0,89,0.00,,---,0.00,VWS V14.01,2013-06-29 04:52:00,
2013-06-29 00:57:00,74.6,71.2,29.56,NW,308,1.5,2.0,89,0.00,,---,0.00,VWS V14.01,2013-06-29 04:57:00,
2013-06-29 01:02:00,74.5,71.1,29.56,West,274,1.5,1.5,89,0.00,,---,0.00,VWS V14.01,2013-06-29 05:02:00,
2013-06-29 01:07:00,74.4,70.9,29.56,WNW,283,1.5,2.0,89,0.00,,---,0.00,VWS V14.01,2013-06-29 05:07:00,
2013-06-29 01:12:00,74.3,70.8,29.56,NW,310,0.0,3.0,89,0.00,,---,0.00,VWS V14.01,2013-06-29 05:12:00,
2013-06-29 01:17:00,74.2,71.1,29.55,WSW,243,1.5,3.0,90,0.00,,---,0.00,VWS V14.01,2013-06-29 05:17:00,
2013-06-29 01:22:00,74.2,71.1,29.55,WNW,290,0.0,3.0,90,0.00,,---,0.00,VWS V14.01,2013-06-29 05:22:00,
2013-06-29 01:27:00,74.1,71.0,29.56,West,276,1.5,3.0,90,0.00,,---,0.00,VWS V14.01,2013-06-29 05:27:00,
2013-06-29 01:32:00,74.1,71.0,29.55,WNW,301,1.5,2.0,90,0.00,,---,0.00,VWS V14.01,2013-06-29 05:32:00,
2013-06-29 01:37:00,74.1,71.0,29.55,WSW,256,0.0,2.0,90,0.00,,---,0.00,VWS V14.01,2013-06-29 05:37:00,
2013-06-29 01:42:00,74.1,70.7,29.55,WSW,245,4.5,4.5,89,0.00,,---,0.00,VWS V14.01,2013-06-29 05:42:00,
2013-06-29 01:47:00,74.2,71.1,29.55,West,264,0.0,4.0,90,0.00,,---,0.00,VWS V14.01,2013-06-29 05:47:00,
2013-06-29 01:52:00,74.2,71.1,29.55,WNW,283,0.0,5.0,90,0.00,,---,0.00,VWS V14.01,2013-06-29 05:52:00,
2013-06-29 01:57:00,74.1,71.0,29.55,SW,219,4.5,5.0,90,0.00,,---,0.00,VWS V14.01,2013-06-29 05:57:00,
2013-06-29 02:02:00,73.9,71.1,29.54,WSW,243,1.5,4.0,91,0.00,,---,0.00,VWS V14.01,2013-06-29 06:02:00,
2013-06-29 02:07:00,73.6,70.8,29.54,WSW,257,1.5,4.0,91,0.00,,---,0.00,VWS V14.01,2013-06-29 06:07:00,
2013-06-29 02:12:00,73.4,70.9,29.54,SW,236,0.0,4.0,92,0.00,,---,0.00,VWS V14.01,2013-06-29 06:12:00,
2013-06-29 02:17:00,73.3,70.8,29.54,SW,221,1.5,4.0,92,0.00,,---,0.00,VWS V14.01,2013-06-29 06:17:00,
2013-06-29 02:22:00,73.2,71.1,29.54,West,261,1.5,4.0,93,0.00,,---,0.00,VWS V14.01,2013-06-29 06:22:00,
2013-06-29 02:27:00,73.1,71.0,29.55,WSW,239,3.0,4.0,93,0.00,,---,0.00,VWS V14.01,2013-06-29 06:27:00,
2013-06-29 02:32:00,73.2,71.1,29.55,WNW,285,1.5,2.0,93,0.00,,---,0.00,VWS V14.01,2013-06-29 06:32:00,
2013-06-29 02:37:00,73.1,70.6,29.54,West,259,1.5,4.0,92,0.00,,---,0.00,VWS V14.01,2013-06-29 06:37:00,
2013-06-29 02:42:00,73.2,70.7,29.55,WSW,238,3.0,5.0,92,0.00,,---,0.00,VWS V14.01,2013-06-29 06:42:00,
2013-06-29 02:47:00,73.2,70.7,29.54,SW,235,1.5,6.0,92,0.00,,---,0.00,VWS V14.01,2013-06-29 06:47:00,
2013-06-29 02:52:00,73.3,70.8,29.55,West,271,1.5,6.0,92,0.00,,---,0.00,VWS V14.01,2013-06-29 06:52:00,
2013-06-29 02:57:00,73.3,70.8,29.55,WNW,283,1.5,6.0,92,0.00,,---,0.00,VWS V14.01,2013-06-29 06:57:00,
2013-06-29 03:02:00,73.2,70.7,29.55,West,259,1.5,2.0,92,0.00,,---,0.00,VWS V14.01,2013-06-29 07:02:00,
2013-06-29 03:07:00,73.2,70.7,29.54,West,277,1.5,3.0,92,0.00,,---,0.00,VWS V14.01,2013-06-29 07:07:00,
2013-06-29 03:12:00,73.1,70.6,29.54,West,263,0.0,3.0,92,0.00,,---,0.00,VWS V14.01,2013-06-29 07:12:00,
2013-06-29 03:17:00,73.1,70.3,29.54,WNW,293,1.5,5.0,91,0.00,,---,0.00,VWS V14.01,2013-06-29 07:17:00,
2013-06-29 03:22:00,72.9,70.1,29.54,WNW,300,0.0,5.0,91,0.00,,---,0.00,VWS V14.01,2013-06-29 07:22:00,
2013-06-29 03:27:00,72.9,70.1,29.54,NNW,330,0.0,5.0,91,0.00,,---,0.00,VWS V14.01,2013-06-29 07:27:00,
2013-06-29 03:32:00,72.7,69.9,29.54,WSW,242,1.5,1.5,91,0.00,,---,0.00,VWS V14.01,2013-06-29 07:32:00,
2013-06-29 03:37:00,72.7,69.9,29.54,SSW,208,0.0,3.0,91,0.00,,---,0.00,VWS V14.01,2013-06-29 07:37:00,
2013-06-29 03:42:00,72.6,69.8,29.54,NNW,331,0.0,3.0,91,0.00,,---,0.00,VWS V14.01,2013-06-29 07:42:00,
2013-06-29 03:47:00,72.4,69.9,29.53,WNW,297,1.5,3.0,92,0.00,,---,0.00,VWS V14.01,2013-06-29 07:47:00,
2013-06-29 03:52:00,72.3,69.8,29.53,West,278,1.5,3.0,92,0.00,,---,0.00,VWS V14.01,2013-06-29 07:52:00,
2013-06-29 03:57:00,72.2,69.8,29.53,WNW,297,0.0,3.0,92,0.00,,---,0.00,VWS V14.01,2013-06-29 07:57:00,
2013-06-29 04:02:00,72.2,70.1,29.53,WSW,253,0.0,0.0,93,0.00,,---,0.00,VWS V14.01,2013-06-29 08:02:00,
2013-06-29 04:07:00,72.1,70.0,29.53,West,280,0.0,2.0,93,0.00,,---,0.00,VWS V14.01,2013-06-29 08:07:00,
2013-06-29 04:12:00,72.0,69.9,29.54,West,280,0.0,2.0,93,0.00,,---,0.00,VWS V14.01,2013-06-29 08:12:00,
2013-06-29 04:17:00,71.9,70.1,29.54,NW,311,0.0,2.0,94,0.00,,---,0.00,VWS V14.01,2013-06-29 08:17:00,
2013-06-29 04:22:00,71.9,70.1,29.55,WNW,284,0.0,3.0,94,0.00,,---,0.00,VWS V14.01,2013-06-29 08:22:00,
2013-06-29 04:27:00,71.8,70.0,29.55,WNW,284,1.5,3.0,94,0.00,,---,0.00,VWS V14.01,2013-06-29 08:27:00,
2013-06-29 04:32:00,71.8,70.0,29.55,WSW,247,0.0,1.0,94,0.00,,---,0.00,VWS V14.01,2013-06-29 08:32:00,
2013-06-29 04:37:00,71.8,70.0,29.55,WNW,298,1.5,1.5,94,0.00,,---,0.00,VWS V14.01,2013-06-29 08:37:00,
2013-06-29 04:42:00,71.8,70.0,29.55,NW,316,0.0,1.0,94,0.00,,---,0.00,VWS V14.01,2013-06-29 08:42:00,
2013-06-29 04:47:00,71.7,69.9,29.55,NW,318,0.0,1.0,94,0.00,,---,0.00,VWS V14.01,2013-06-29 08:47:00,
2013-06-29 04:52:00,71.6,69.8,29.55,WNW,291,0.0,2.0,94,0.00,,---,0.00,VWS V14.01,2013-06-29 08:52:00,
2013-06-29 04:57:00,71.5,69.7,29.55,North,352,0.0,2.0,94,0.00,,---,0.00,VWS V14.01,2013-06-29 08:57:00,
2013-06-29 05:02:00,71.4,69.6,29.56,North,352,0.0,1.0,94,0.00,,---,0.00,VWS V14.01,2013-06-29 09:02:00,
2013-06-29 05:07:00,71.3,69.5,29.56,North,352,0.0,1.0,94,0.00,,---,0.00,VWS V14.01,2013-06-29 09:07:00,
2013-06-29 05:12:00,71.1,69.6,29.56,NW,312,0.0,3.0,95,0.00,,---,0.00,VWS V14.01,2013-06-29 09:12:00,
2013-06-29 05:17:00,71.1,69.6,29.56,SW,236,0.0,3.0,95,0.00,,---,0.00,VWS V14.01,2013-06-29 09:17:00,
2013-06-29 05:22:00,71.0,69.5,29.57,WSW,238,0.0,3.0,95,0.00,,---,0.00,VWS V14.01,2013-06-29 09:22:00,
2013-06-29 05:27:00,71.0,69.5,29.57,NNE,18,0.0,3.0,95,0.00,,---,0.00,VWS V14.01,2013-06-29 09:27:00,
2013-06-29 05:28:00,71.0,69.5,29.57,NNE,18,0.0,3.0,95,0.00,,---,0.00,VWS V14.01,2013-06-29 09:28:00,
2013-06-29 05:33:00,70.9,69.7,29.57,West,263,0.0,1.0,96,0.00,,---,0.00,VWS V14.01,2013-06-29 09:33:00,
2013-06-29 05:38:00,70.9,69.7,29.57,West,263,1.5,1.5,96,0.00,,---,0.00,VWS V14.01,2013-06-29 09:38:00,
2013-06-29 05:43:00,70.9,69.7,29.57,West,263,0.0,1.0,96,0.00,,---,0.00,VWS V14.01,2013-06-29 09:43:00,
2013-06-29 05:48:00,70.8,69.6,29.57,WSW,239,0.0,1.0,96,0.00,,---,0.00,VWS V14.01,2013-06-29 09:48:00,
2013-06-29 05:53:00,70.8,69.6,29.57,WSW,238,0.0,1.0,96,0.00,,---,0.00,VWS V14.01,2013-06-29 09:53:00,
2013-06-29 05:58:00,70.8,69.6,29.57,NNW,331,0.0,2.0,96,0.00,,---,0.00,VWS V14.01,2013-06-29 09:58:00,
2013-06-29 06:03:00,70.8,69.6,29.57,NW,308,1.5,2.0,96,0.00,,---,0.00,VWS V14.01,2013-06-29 10:03:00,
2013-06-29 06:08:00,70.8,69.6,29.58,West,273,1.5,2.0,96,0.00,,---,0.00,VWS V14.01,2013-06-29 10:08:00,
2013-06-29 06:13:00,70.8,69.3,29.57,WSW,256,1.5,4.0,95,0.00,,---,0.00,VWS V14.01,2013-06-29 10:13:00,
2013-06-29 06:18:00,70.8,69.3,29.58,West,276,0.0,4.0,95,0.00,,---,0.00,VWS V14.01,2013-06-29 10:18:00,
2013-06-29 06:23:00,70.9,69.4,29.58,WNW,301,1.5,4.0,95,0.00,,---,0.00,VWS V14.01,2013-06-29 10:23:00,
2013-06-29 06:28:00,70.9,69.1,29.58,WNW,285,3.0,4.0,94,0.00,,---,0.00,VWS V14.01,2013-06-29 10:28:00,
2013-06-29 06:33:00,71.0,69.2,29.58,WNW,291,0.0,3.0,94,0.00,,---,0.00,VWS V14.01,2013-06-29 10:33:00,
2013-06-29 06:38:00,71.0,69.2,29.58,WSW,248,7.5,7.5,94,0.00,,---,0.00,VWS V14.01,2013-06-29 10:38:00,
2013-06-29 06:43:00,71.1,69.3,29.58,WNW,285,4.5,5.0,94,0.00,,---,0.00,VWS V14.01,2013-06-29 10:43:00,
2013-06-29 06:48:00,71.1,69.3,29.58,SW,226,1.5,5.0,94,0.00,,---,0.00,VWS V14.01,2013-06-29 10:48:00,
2013-06-29 06:53:00,71.2,69.4,29.58,North,9,1.5,5.0,94,0.00,,---,0.00,VWS V14.01,2013-06-29 10:53:00,
2013-06-29 06:58:00,71.2,69.1,29.58,WNW,288,3.0,5.0,93,0.00,,---,0.00,VWS V14.01,2013-06-29 10:58:00,
2013-06-29 07:03:00,71.3,69.2,29.58,WNW,289,1.5,3.0,93,0.00,,---,0.00,VWS V14.01,2013-06-29 11:03:00,
2013-06-29 07:08:00,71.3,69.2,29.58,West,260,1.5,4.0,93,0.00,,---,0.00,VWS V14.01,2013-06-29 11:08:00,
2013-06-29 07:13:00,71.4,69.3,29.59,NW,304,0.0,4.0,93,0.00,,---,0.00,VWS V14.01,2013-06-29 11:13:00,
2013-06-29 07:18:00,71.4,69.3,29.59,WSW,256,1.5,4.0,93,0.00,,---,0.00,VWS V14.01,2013-06-29 11:18:00,
2013-06-29 07:23:00,71.5,69.4,29.59,SW,235,3.0,4.0,93,0.00,,---,0.00,VWS V14.01,2013-06-29 11:23:00,
2013-06-29 07:28:00,71.6,69.5,29.59,NW,304,1.5,4.0,93,0.00,,---,0.00,VWS V14.01,2013-06-29 11:28:00,
2013-06-29 07:33:00,71.6,69.2,29.59,WSW,255,1.5,3.0,92,0.00,,---,0.00,VWS V14.01,2013-06-29 11:33:00,
2013-06-29 07:38:00,71.7,69.3,29.60,WNW,288,3.0,3.0,92,0.00,,---,0.00,VWS V14.01,2013-06-29 11:38:00,
2013-06-29 07:43:00,71.8,69.3,29.60,West,278,1.5,3.0,92,0.00,,---,0.00,VWS V14.01,2013-06-29 11:43:00,
2013-06-29 07:48:00,71.8,69.3,29.60,South,169,1.5,6.0,92,0.00,,---,0.00,VWS V14.01,2013-06-29 11:48:00,
2013-06-29 07:53:00,71.8,69.3,29.60,WSW,242,1.5,6.0,92,0.00,,---,0.00,VWS V14.01,2013-06-29 11:53:00,
2013-06-29 07:58:00,71.9,69.4,29.60,SW,229,1.5,6.0,92,0.00,,---,0.00,VWS V14.01,2013-06-29 11:58:00,
2013-06-29 08:03:00,72.1,69.3,29.60,WNW,290,1.5,2.0,91,0.00,,---,0.00,VWS V14.01,2013-06-29 12:03:00,
2013-06-29 08:08:00,72.3,69.5,29.60,WSW,238,1.5,5.0,91,0.00,,---,0.00,VWS V14.01,2013-06-29 12:08:00,
2013-06-29 08:13:00,72.5,69.7,29.60,SW,231,0.0,5.0,91,0.00,,---,0.00,VWS V14.01,2013-06-29 12:13:00,
2013-06-29 08:18:00,72.7,69.6,29.60,SW,217,6.0,6.0,90,0.00,,---,0.00,VWS V14.01,2013-06-29 12:18:00,
2013-06-29 08:23:00,72.8,69.4,29.60,West,278,3.0,5.0,89,0.00,,---,0.00,VWS V14.01,2013-06-29 12:23:00,
2013-06-29 08:28:00,72.9,69.5,29.61,WSW,257,4.5,5.0,89,0.00,,---,0.00,VWS V14.01,2013-06-29 12:28:00,
2013-06-29 08:33:00,72.8,69.7,29.61,West,278,0.0,2.0,90,0.00,,---,0.00,VWS V14.01,2013-06-29 12:33:00,
2013-06-29 08:38:00,72.7,69.3,29.61,WSW,247,0.0,4.0,89,0.00,,---,0.00,VWS V14.01,2013-06-29 12:38:00,
2013-06-29 08:43:00,72.7,69.6,29.61,WSW,256,0.0,4.0,90,0.00,,---,0.00,VWS V14.01,2013-06-29 12:43:00,
2013-06-29 08:48:00,72.9,69.8,29.61,WNW,288,1.5,4.0,90,0.00,,---,0.00,VWS V14.01,2013-06-29 12:48:00,
2013-06-29 08:53:00,73.2,69.8,29.61,WNW,291,1.5,4.0,89,0.00,,---,0.00,VWS V14.01,2013-06-29 12:53:00,
2013-06-29 08:58:00,73.4,69.6,29.61,WSW,253,1.5,4.0,88,0.00,,---,0.00,VWS V14.01,2013-06-29 12:58:00,
2013-06-29 09:03:00,73.6,69.8,29.61,NW,310,1.5,3.0,88,0.00,,---,0.00,VWS V14.01,2013-06-29 13:03:00,
2013-06-29 09:08:00,74.0,70.2,29.61,SW,228,1.5,4.0,88,0.00,,---,0.00,VWS V14.01,2013-06-29 13:08:00,
2013-06-29 09:13:00,74.3,70.2,29.62,WNW,291,3.0,5.0,87,0.00,,---,0.00,VWS V14.01,2013-06-29 13:13:00,
2013-06-29 09:18:00,74.6,70.5,29.61,SW,225,0.0,5.0,87,0.00,,---,0.00,VWS V14.01,2013-06-29 13:18:00,
2013-06-29 09:23:00,74.9,70.8,29.62,SW,228,6.0,6.0,87,0.00,,---,0.00,VWS V14.01,2013-06-29 13:23:00,
2013-06-29 09:28:00,75.2,70.7,29.62,WSW,246,3.0,5.0,86,0.00,,---,0.00,VWS V14.01,2013-06-29 13:28:00,
2013-06-29 09:33:00,75.4,70.6,29.61,North,356,1.5,1.5,85,0.00,,---,0.00,VWS V14.01,2013-06-29 13:33:00,
2013-06-29 09:38:00,75.6,70.8,29.61,WNW,297,1.5,3.0,85,0.00,,---,0.00,VWS V14.01,2013-06-29 13:38:00,
2013-06-29 09:43:00,76.1,71.3,29.61,SW,229,0.0,4.0,85,0.00,,---,0.00,VWS V14.01,2013-06-29 13:43:00,
2013-06-29 09:48:00,76.5,71.7,29.61,WSW,250,1.5,4.0,85,0.00,,---,0.00,VWS V14.01,2013-06-29 13:48:00,
2013-06-29 09:53:00,76.8,71.2,29.61,SSE,164,0.0,4.0,83,0.00,,---,0.00,VWS V14.01,2013-06-29 13:53:00,
2013-06-29 09:58:00,77.0,71.1,29.61,WNW,285,1.5,4.0,82,0.00,,---,0.00,VWS V14.01,2013-06-29 13:58:00,
2013-06-29 10:03:00,77.1,71.2,29.61,SSE,153,1.5,1.5,82,0.00,,---,0.00,VWS V14.01,2013-06-29 14:03:00,
2013-06-29 10:08:00,77.5,71.6,29.61,WNW,300,1.5,4.0,82,0.00,,---,0.00,VWS V14.01,2013-06-29 14:08:00,
2013-06-29 10:13:00,77.8,71.1,29.61,SW,222,0.0,4.0,80,0.00,,---,0.00,VWS V14.01,2013-06-29 14:13:00,
2013-06-29 10:18:00,77.9,71.2,29.61,SW,236,1.5,4.0,80,0.00,,---,0.00,VWS V14.01,2013-06-29 14:18:00,
2013-06-29 10:23:00,78.3,72.0,29.61,WSW,255,0.0,4.0,81,0.00,,---,0.00,VWS V14.01,2013-06-29 14:23:00,
2013-06-29 10:28:00,78.6,71.2,29.61,SW,233,4.5,4.5,78,0.00,,---,0.00,VWS V14.01,2013-06-29 14:28:00,
2013-06-29 10:33:00,78.7,71.3,29.61,SW,232,0.0,2.0,78,0.00,,---,0.00,VWS V14.01,2013-06-29 14:33:00,
2013-06-29 10:38:00,79.0,71.9,29.61,WNW,291,0.0,2.0,79,0.00,,---,0.00,VWS V14.01,2013-06-29 14:38:00,
2013-06-29 10:43:00,79.4,71.9,29.61,WNW,293,0.0,2.0,78,0.00,,---,0.00,VWS V14.01,2013-06-29 14:43:00,
2013-06-29 10:48:00,79.7,70.7,29.61,SW,233,1.5,5.0,74,0.00,,---,0.00,VWS V14.01,2013-06-29 14:48:00,
2013-06-29 10:53:00,79.8,71.2,29.61,WSW,239,0.0,5.0,75,0.00,,---,0.00,VWS V14.01,2013-06-29 14:53:00,
2013-06-29 10:58:00,80.2,70.8,29.61,WNW,288,3.0,5.0,73,0.00,,---,0.00,VWS V14.01,2013-06-29 14:58:00,
2013-06-29 11:03:00,80.5,69.4,29.60,North,8,1.5,4.0,69,0.00,,---,0.00,VWS V14.01,2013-06-29 15:03:00,
2013-06-29 11:08:00,80.8,69.7,29.61,WNW,290,1.5,4.0,69,0.00,,---,0.00,VWS V14.01,2013-06-29 15:08:00,
2013-06-29 11:13:00,81.1,69.6,29.61,West,277,0.0,4.0,68,0.00,,---,0.00,VWS V14.01,2013-06-29 15:13:00,
2013-06-29 11:18:00,81.5,69.9,29.61,WNW,291,3.0,4.0,68,0.00,,---,0.00,VWS V14.01,2013-06-29 15:18:00,
2013-06-29 11:23:00,81.6,69.6,29.61,WNW,293,0.0,4.0,67,0.00,,---,0.00,VWS V14.01,2013-06-29 15:23:00,
2013-06-29 11:28:00,82.0,70.0,29.61,West,276,3.0,4.0,67,0.00,,---,0.00,VWS V14.01,2013-06-29 15:28:00,
2013-06-29 11:33:00,82.2,68.8,29.61,SW,222,3.0,3.0,64,0.00,,---,0.00,VWS V14.01,2013-06-29 15:33:00,
2013-06-29 11:38:00,82.7,70.6,29.61,West,260,1.5,3.0,67,0.00,,---,0.00,VWS V14.01,2013-06-29 15:38:00,
2013-06-29 11:43:00,82.9,68.6,29.61,South,186,4.5,4.5,62,0.00,,---,0.00,VWS V14.01,2013-06-29 15:43:00,
2013-06-29 11:48:00,82.7,69.3,29.61,West,269,0.0,5.0,64,0.00,,---,0.00,VWS V14.01,2013-06-29 15:48:00,
2013-06-29 11:53:00,83.1,69.7,29.60,WSW,255,3.0,5.0,64,0.00,,---,0.00,VWS V14.01,2013-06-29 15:53:00,
2013-06-29 11:58:00,83.1,70.1,29.60,WSW,248,0.0,6.0,65,0.00,,---,0.00,VWS V14.01,2013-06-29 15:58:00,
2013-06-29 12:03:00,83.6,70.1,29.60,WSW,255,1.5,2.0,64,0.00,,---,0.00,VWS V14.01,2013-06-29 16:03:00,
2013-06-29 12:08:00,84.1,69.2,29.60,WNW,301,1.5,3.0,61,0.00,,---,0.00,VWS V14.01,2013-06-29 16:08:00,
2013-06-29 12:13:00,84.2,67.3,29.60,SSW,210,7.5,7.5,57,0.00,,---,0.00,VWS V14.01,2013-06-29 16:13:00,
2013-06-29 12:18:00,83.9,67.1,29.60,WSW,245,3.0,7.0,57,0.00,,---,0.00,VWS V14.01,2013-06-29 16:18:00,
2013-06-29 12:23:00,83.9,67.1,29.60,West,281,6.0,7.0,57,0.00,,---,0.00,VWS V14.01,2013-06-29 16:23:00,
2013-06-29 12:28:00,84.2,66.8,29.60,NW,308,4.5,7.0,56,0.00,,---,0.00,VWS V14.01,2013-06-29 16:28:00,
2013-06-29 12:33:00,84.2,68.3,29.60,NE,41,0.0,5.0,59,0.00,,---,0.00,VWS V14.01,2013-06-29 16:33:00,
2013-06-29 12:38:00,84.5,68.6,29.60,WNW,283,3.0,6.0,59,0.00,,---,0.00,VWS V14.01,2013-06-29 16:38:00,
2013-06-29 12:43:00,85.0,66.5,29.61,WSW,252,0.0,6.0,54,0.00,,---,0.00,VWS V14.01,2013-06-29 16:43:00,
2013-06-29 12:48:00,85.1,67.7,29.61,SW,222,0.0,6.0,56,0.00,,---,0.00,VWS V14.01,2013-06-29 16:48:00,
2013-06-29 12:53:00,85.5,69.1,29.61,WNW,293,1.5,6.0,58,0.00,,---,0.00,VWS V14.01,2013-06-29 16:53:00,
2013-06-29 12:58:00,85.9,68.4,29.61,West,259,0.0,6.0,56,0.00,,---,0.00,VWS V14.01,2013-06-29 16:58:00,
2013-06-29 13:03:00,85.5,67.0,29.61,NE,44,1.5,4.0,54,0.00,,---,0.00,VWS V14.01,2013-06-29 17:03:00,
2013-06-29 13:08:00,85.6,69.1,29.61,ENE,65,3.0,4.0,58,0.00,,---,0.00,VWS V14.01,2013-06-29 17:08:00,
2013-06-29 13:13:00,85.7,68.2,29.60,SE,135,1.5,5.0,56,0.00,,---,0.00,VWS V14.01,2013-06-29 17:13:00,
2013-06-29 13:18:00,86.4,68.3,29.61,WNW,288,3.0,5.0,55,0.00,,---,0.00,VWS V14.01,2013-06-29 17:18:00,
2013-06-29 13:23:00,86.0,68.0,29.61,East,80,0.0,6.0,55,0.00,,---,0.00,VWS V14.01,2013-06-29 17:23:00,
2013-06-29 13:28:00,85.9,67.9,29.61,WNW,288,1.5,6.0,55,0.00,,---,0.00,VWS V14.01,2013-06-29 17:28:00,
2013-06-29 13:33:00,86.0,67.4,29.61,WSW,252,1.5,3.0,54,0.00,,---,0.00,VWS V14.01,2013-06-29 17:33:00,
2013-06-29 13:39:00,86.2,67.6,29.60,WNW,291,3.0,5.0,54,0.00,,---,0.00,VWS V14.01,2013-06-29 17:39:00,
2013-06-29 13:44:00,86.0,67.4,29.60,SW,236,0.0,5.0,54,0.00,,---,0.00,VWS V14.01,2013-06-29 17:44:00,
2013-06-29 13:49:00,85.9,67.9,29.60,SSW,212,0.0,5.0,55,0.00,,---,0.00,VWS V14.01,2013-06-29 17:49:00,
2013-06-29 13:54:00,86.1,68.6,29.60,SW,235,1.5,5.0,56,0.00,,---,0.00,VWS V14.01,2013-06-29 17:54:00,
2013-06-29 13:59:00,86.6,68.5,29.60,WSW,255,7.5,7.5,55,0.00,,---,0.00,VWS V14.01,2013-06-29 17:59:00,
2013-06-29 14:04:00,86.6,68.0,29.60,SW,228,4.5,5.0,54,0.00,,---,0.00,VWS V14.01,2013-06-29 18:04:00,
2013-06-29 14:09:00,86.8,67.6,29.60,NW,311,3.0,5.0,53,0.00,,---,0.00,VWS V14.01,2013-06-29 18:09:00,
2013-06-29 14:14:00,87.2,67.4,29.60,SW,232,1.5,5.0,52,0.00,,---,0.00,VWS V14.01,2013-06-29 18:14:00,
2013-06-29 14:19:00,87.8,68.0,29.60,West,273,1.5,5.0,52,0.00,,---,0.00,VWS V14.01,2013-06-29 18:19:00,
2013-06-29 14:24:00,88.1,68.3,29.60,WSW,239,0.0,5.0,52,0.00,,---,0.00,VWS V14.01,2013-06-29 18:24:00,
2013-06-29 14:29:00,88.2,68.9,29.60,WNW,297,3.0,5.0,53,0.00,,---,0.00,VWS V14.01,2013-06-29 18:29:00,
2013-06-29 14:34:00,88.0,65.9,29.60,WSW,243,0.0,6.0,48,0.00,,---,0.00,VWS V14.01,2013-06-29 18:34:00,
2013-06-29 14:39:00,88.3,66.7,29.60,NW,305,1.5,6.0,49,0.00,,---,0.00,VWS V14.01,2013-06-29 18:39:00,
2013-06-29 14:44:00,88.6,66.4,29.60,WNW,287,1.5,6.0,48,0.00,,---,0.00,VWS V14.01,2013-06-29 18:44:00,
2013-06-29 14:49:00,88.7,66.5,29.61,West,280,1.5,6.0,48,0.00,,---,0.00,VWS V14.01,2013-06-29 18:49:00,
2013-06-29 14:54:00,89.2,66.3,29.61,WNW,294,3.0,6.0,47,0.00,,---,0.00,VWS V14.01,2013-06-29 18:54:00,
2013-06-29 14:59:00,89.4,66.5,29.60,WSW,243,4.5,6.0,47,0.00,,---,0.00,VWS V14.01,2013-06-29 18:59:00,
2013-06-29 15:04:00,89.5,66.6,29.60,WNW,290,0.0,3.0,47,0.00,,---,0.00,VWS V14.01,2013-06-29 19:04:00,
2013-06-29 15:09:00,89.5,67.8,29.60,West,273,0.0,3.0,49,0.00,,---,0.00,VWS V14.01,2013-06-29 19:09:00,
2013-06-29 15:14:00,89.7,67.4,29.60,West,270,1.5,5.0,48,0.00,,---,0.00,VWS V14.01,2013-06-29 19:14:00,
2013-06-29 15:19:00,89.5,67.2,29.60,NW,309,3.0,5.0,48,0.00,,---,0.00,VWS V14.01,2013-06-29 19:19:00,
2013-06-29 15:24:00,89.6,67.9,29.60,West,260,3.0,5.0,49,0.00,,---,0.00,VWS V14.01,2013-06-29 19:24:00,
2013-06-29 15:29:00,90.1,68.4,29.60,West,273,1.5,5.0,49,0.00,,---,0.00,VWS V14.01,2013-06-29 19:29:00,
2013-06-29 15:34:00,89.9,67.6,29.60,NW,304,6.0,6.0,48,0.00,,---,0.00,VWS V14.01,2013-06-29 19:34:00,
2013-06-29 15:39:00,89.9,68.2,29.60,WSW,238,3.0,5.0,49,0.00,,---,0.00,VWS V14.01,2013-06-29 19:39:00,
2013-06-29 15:44:00,89.2,68.7,29.60,WNW,285,1.5,6.0,51,0.00,,---,0.00,VWS V14.01,2013-06-29 19:44:00,
2013-06-29 15:49:00,89.0,68.5,29.60,WNW,293,4.5,6.0,51,0.00,,---,0.00,VWS V14.01,2013-06-29 19:49:00,
2013-06-29 15:54:00,89.0,68.0,29.60,WNW,295,4.5,6.0,50,0.00,,---,0.00,VWS V14.01,2013-06-29 19:54:00,
2013-06-29 15:59:00,89.3,68.8,29.60,West,273,3.0,6.0,51,0.00,,---,0.00,VWS V14.01,2013-06-29 19:59:00,
2013-06-29 16:04:00,90.2,69.6,29.60,SW,214,0.0,1.0,51,0.00,,---,0.00,VWS V14.01,2013-06-29 20:04:00,
2013-06-29 16:09:00,90.5,68.8,29.60,SW,229,3.0,3.0,49,0.00,,---,0.00,VWS V14.01,2013-06-29 20:09:00,
2013-06-29 16:14:00,90.1,69.0,29.60,WNW,298,4.5,5.0,50,0.00,,---,0.00,VWS V14.01,2013-06-29 20:14:00,
2013-06-29 16:19:00,90.0,69.5,29.60,SSW,201,0.0,5.0,51,0.00,,---,0.00,VWS V14.01,2013-06-29 20:19:00,
2013-06-29 16:24:00,90.4,69.8,29.60,West,270,1.5,5.0,51,0.00,,---,0.00,VWS V14.01,2013-06-29 20:24:00,
2013-06-29 16:29:00,90.6,70.0,29.60,West,281,1.5,5.0,51,0.00,,---,0.00,VWS V14.01,2013-06-29 20:29:00,
2013-06-29 16:34:00,91.1,70.5,29.59,NW,311,1.5,3.0,51,0.00,,---,0.00,VWS V14.01,2013-06-29 20:34:00,
2013-06-29 16:39:00,90.8,70.8,29.59,NNW,331,1.5,3.0,52,0.00,,---,0.00,VWS V14.01,2013-06-29 20:39:00,
2013-06-29 16:44:00,91.0,68.0,29.59,West,262,0.0,3.0,47,0.00,,---,0.00,VWS V14.01,2013-06-29 20:44:00,
2013-06-29 16:49:00,91.3,70.1,29.60,ESE,108,0.0,3.0,50,0.00,,---,0.00,VWS V14.01,2013-06-29 20:49:00,
2013-06-29 16:54:00,91.9,70.0,29.59,WNW,295,1.5,4.0,49,0.00,,---,0.00,VWS V14.01,2013-06-29 20:54:00,
2013-06-29 16:59:00,91.2,70.0,29.60,WNW,294,4.5,4.5,50,0.00,,---,0.00,VWS V14.01,2013-06-29 20:59:00,
2013-06-29 17:04:00,91.0,69.2,29.59,WSW,242,0.0,2.0,49,0.00,,---,0.00,VWS V14.01,2013-06-29 21:04:00,
2013-06-29 17:09:00,90.8,69.0,29.59,NNW,330,6.0,6.0,49,0.00,,---,0.00,VWS V14.01,2013-06-29 21:09:00,
2013-06-29 17:14:00,90.5,68.8,29.59,West,266,1.5,5.0,49,0.00,,---,0.00,VWS V14.01,2013-06-29 21:14:00,
2013-06-29 17:19:00,90.3,68.6,29.59,SW,228,1.5,5.0,49,0.00,,---,0.00,VWS V14.01,2013-06-29 21:19:00,
2013-06-29 17:24:00,90.1,69.6,29.59,SE,139,0.0,10.0,51,0.00,,---,0.00,VWS V14.01,2013-06-29 21:24:00,
2013-06-29 17:29:00,90.2,67.9,29.59,WSW,246,3.0,10.0,48,0.00,,---,0.00,VWS V14.01,2013-06-29 21:29:00,
2013-06-29 17:34:00,90.4,69.8,29.58,WNW,288,0.0,3.0,51,0.00,,---,0.00,VWS V14.01,2013-06-29 21:34:00,
2013-06-29 17:39:00,91.4,70.2,29.58,West,261,1.5,3.0,50,0.00,,---,0.00,VWS V14.01,2013-06-29 21:39:00,
2013-06-29 17:44:00,91.6,68.5,29.58,NNW,332,9.0,9.0,47,0.00,,---,0.00,VWS V14.01,2013-06-29 21:44:00,
2013-06-29 17:49:00,90.5,71.1,29.59,East,98,1.5,6.0,53,0.00,,---,0.00,VWS V14.01,2013-06-29 21:49:00,
2013-06-29 17:54:00,89.2,72.0,29.59,ENE,59,3.0,6.0,57,0.00,,---,0.00,VWS V14.01,2013-06-29 21:54:00,
2013-06-29 17:59:00,88.8,73.1,29.59,South,188,1.5,6.0,60,0.00,,---,0.00,VWS V14.01,2013-06-29 21:59:00,
2013-06-29 18:04:00,87.8,73.2,29.59,East,99,1.5,3.0,62,0.00,,---,0.00,VWS V14.01,2013-06-29 22:04:00,
2013-06-29 18:09:00,87.2,73.1,29.59,SSE,150,0.0,3.0,63,0.00,,---,0.00,VWS V14.01,2013-06-29 22:09:00,
2013-06-29 18:14:00,86.6,73.4,29.60,NW,311,1.5,3.0,65,0.00,,---,0.00,VWS V14.01,2013-06-29 22:14:00,
2013-06-29 18:19:00,86.5,73.8,29.60,North,352,3.0,3.0,66,0.00,,---,0.00,VWS V14.01,2013-06-29 22:19:00,
2013-06-29 18:24:00,86.8,74.1,29.60,East,86,0.0,3.0,66,0.00,,---,0.00,VWS V14.01,2013-06-29 22:24:00,
2013-06-29 18:29:00,87.0,74.7,29.61,East,82,0.0,4.0,67,0.00,,---,0.00,VWS V14.01,2013-06-29 22:29:00,
2013-06-29 18:34:00,87.1,74.4,29.61,SE,129,0.0,2.0,66,0.00,,---,0.00,VWS V14.01,2013-06-29 22:34:00,
2013-06-29 18:39:00,87.1,74.8,29.61,NW,304,1.5,2.0,67,0.00,,---,0.00,VWS V14.01,2013-06-29 22:39:00,
2013-06-29 18:44:00,86.5,73.8,29.61,SW,228,0.0,4.0,66,0.00,,---,0.00,VWS V14.01,2013-06-29 22:44:00,
2013-06-29 18:49:00,86.3,74.1,29.61,ENE,59,0.0,4.0,67,0.00,,---,0.00,VWS V14.01,2013-06-29 22:49:00,
2013-06-29 18:54:00,86.0,73.8,29.61,East,84,3.0,4.0,67,0.00,,---,0.00,VWS V14.01,2013-06-29 22:54:00,
2013-06-29 18:59:00,85.4,74.1,29.61,SE,124,0.0,4.0,69,0.00,,---,0.00,VWS V14.01,2013-06-29 22:59:00,
2013-06-29 19:04:00,85.1,73.8,29.62,ESE,107,1.5,6.0,69,0.00,,---,0.00,VWS V14.01,2013-06-29 23:04:00,
2013-06-29 19:09:00,84.9,74.0,29.62,SE,131,0.0,6.0,70,0.00,,---,0.00,VWS V14.01,2013-06-29 23:09:00,
2013-06-29 19:14:00,84.7,73.8,29.62,North,11,1.5,6.0,70,0.00,,---,0.00,VWS V14.01,2013-06-29 23:14:00,
2013-06-29 19:19:00,84.5,73.7,29.62,SE,133,0.0,6.0,70,0.00,,---,0.00,VWS V14.01,2013-06-29 23:19:00,
2013-06-29 19:24:00,84.4,73.6,29.63,South,186,0.0,6.0,70,0.00,,---,0.00,VWS V14.01,2013-06-29 23:24:00,
2013-06-29 19:29:00,84.2,73.4,29.63,East,96,0.0,6.0,70,0.00,,---,0.00,VWS V14.01,2013-06-29 23:29:00,
2013-06-29 19:34:00,83.9,73.1,29.63,SE,128,1.5,2.0,70,0.00,,---,0.00,VWS V14.01,2013-06-29 23:34:00,
2013-06-29 19:39:00,83.7,73.3,29.63,SE,132,0.0,3.0,71,0.00,,---,0.00,VWS V14.01,2013-06-29 23:39:00,
2013-06-29 19:44:00,83.4,73.4,29.63,ESE,118,0.0,3.0,72,0.00,,---,0.00,VWS V14.01,2013-06-29 23:44:00,
2013-06-29 19:49:00,83.2,73.2,29.63,SE,129,0.0,7.0,72,0.00,,---,0.00,VWS V14.01,2013-06-29 23:49:00,
2013-06-29 19:54:00,83.0,73.5,29.63,SE,129,0.0,7.0,73,0.00,,---,0.00,VWS V14.01,2013-06-29 23:54:00,
2013-06-29 19:59:00,82.7,73.2,29.64,SSE,151,0.0,7.0,73,0.00,,---,0.00,VWS V14.01,2013-06-29 23:59:00,
2013-06-29 20:04:00,82.6,73.1,29.64,SE,127,0.0,2.0,73,0.00,,---,0.00,VWS V14.01,2013-06-30 00:04:00,
2013-06-29 20:09:00,82.5,73.0,29.64,SE,146,1.5,2.0,73,0.00,,---,0.00,VWS V14.01,2013-06-30 00:09:00,
2013-06-29 20:14:00,82.3,72.8,29.64,South,172,0.0,2.0,73,0.00,,---,0.00,VWS V14.01,2013-06-30 00:14:00,
2013-06-29 20:19:00,82.1,73.0,29.64,South,169,0.0,2.0,74,0.00,,---,0.00,VWS V14.01,2013-06-30 00:19:00,
2013-06-29 20:24:00,81.9,72.8,29.64,SE,143,1.5,2.0,74,0.00,,---,0.00,VWS V14.01,2013-06-30 00:24:00,
2013-06-29 20:29:00,81.7,73.0,29.64,ESE,115,0.0,2.0,75,0.00,,---,0.00,VWS V14.01,2013-06-30 00:29:00,
2013-06-29 20:34:00,81.5,72.8,29.64,ESE,115,0.0,1.0,75,0.00,,---,0.00,VWS V14.01,2013-06-30 00:34:00,
2013-06-29 20:39:00,81.3,73.0,29.64,ESE,116,0.0,1.0,76,0.00,,---,0.00,VWS V14.01,2013-06-30 00:39:00,
2013-06-29 20:44:00,81.1,72.8,29.65,ESE,115,0.0,1.0,76,0.00,,---,0.00,VWS V14.01,2013-06-30 00:44:00,
2013-06-29 20:49:00,80.9,73.0,29.65,SE,128,1.5,1.5,77,0.00,,---,0.00,VWS V14.01,2013-06-30 00:49:00,
2013-06-29 20:54:00,80.8,72.9,29.65,SE,128,0.0,1.0,77,0.00,,---,0.00,VWS V14.01,2013-06-30 00:54:00,
2013-06-29 20:59:00,80.7,72.8,29.65,SE,128,0.0,1.0,77,0.00,,---,0.00,VWS V14.01,2013-06-30 00:59:00,
2013-06-29 21:04:00,80.5,73.0,29.65,SE,128,0.0,1.0,78,0.00,,---,0.00,VWS V14.01,2013-06-30 01:04:00,
2013-06-29 21:09:00,80.3,72.8,29.65,SE,128,0.0,1.0,78,0.00,,---,0.00,VWS V14.01,2013-06-30 01:09:00,
2013-06-29 21:14:00,80.1,73.0,29.66,SE,128,0.0,1.0,79,0.00,,---,0.00,VWS V14.01,2013-06-30 01:14:00,
2013-06-29 21:19:00,80.0,72.9,29.66,SE,128,0.0,1.0,79,0.00,,---,0.00,VWS V14.01,2013-06-30 01:19:00,
2013-06-29 21:24:00,79.8,72.7,29.66,SE,128,0.0,1.0,79,0.00,,---,0.00,VWS V14.01,2013-06-30 01:24:00,
2013-06-29 21:29:00,79.7,73.0,29.66,SE,129,0.0,1.0,80,0.00,,---,0.00,VWS V14.01,2013-06-30 01:29:00,
2013-06-29 21:34:00,79.6,72.9,29.66,SE,128,0.0,1.0,80,0.00,,---,0.00,VWS V14.01,2013-06-30 01:34:00,
2013-06-29 21:39:00,79.5,72.8,29.66,SE,128,0.0,1.0,80,0.00,,---,0.00,VWS V14.01,2013-06-30 01:39:00,
2013-06-29 21:44:00,79.3,73.0,29.67,SE,129,0.0,1.0,81,0.00,,---,0.00,VWS V14.01,2013-06-30 01:44:00,
2013-06-29 21:49:00,79.2,72.9,29.67,SE,128,0.0,1.0,81,0.00,,---,0.00,VWS V14.01,2013-06-30 01:49:00,
2013-06-29 21:55:00,79.1,73.1,29.67,SE,129,0.0,1.0,82,0.00,,---,0.00,VWS V14.01,2013-06-30 01:55:00,
2013-06-29 22:00:00,79.0,73.0,29.67,SE,128,0.0,1.0,82,0.00,,---,0.00,VWS V14.01,2013-06-30 02:00:00,
2013-06-29 22:05:00,78.8,73.2,29.67,SE,128,0.0,0.0,83,0.00,,---,0.00,VWS V14.01,2013-06-30 02:05:00,
2013-06-29 22:10:00,78.6,73.0,29.68,SE,128,0.0,1.0,83,0.00,,---,0.00,VWS V14.01,2013-06-30 02:10:00,
2013-06-29 22:15:00,78.5,72.9,29.68,SE,129,0.0,1.0,83,0.00,,---,0.00,VWS V14.01,2013-06-30 02:15:00,
2013-06-29 22:20:00,78.4,73.2,29.68,SE,128,0.0,1.0,84,0.00,,---,0.00,VWS V14.01,2013-06-30 02:20:00,
2013-06-29 22:25:00,78.3,73.1,29.68,SE,128,0.0,1.0,84,0.00,,---,0.00,VWS V14.01,2013-06-30 02:25:00,
2013-06-29 22:30:00,78.2,73.3,29.68,SE,129,0.0,1.0,85,0.00,,---,0.00,VWS V14.01,2013-06-30 02:30:00,
2013-06-29 22:35:00,78.1,73.2,29.68,SE,128,0.0,0.0,85,0.00,,---,0.00,VWS V14.01,2013-06-30 02:35:00,
2013-06-29 22:40:00,78.0,73.5,29.68,SE,135,0.0,1.0,86,0.00,,---,0.00,VWS V14.01,2013-06-30 02:40:00,
2013-06-29 22:45:00,77.9,73.4,29.68,SE,136,0.0,1.0,86,0.00,,---,0.00,VWS V14.01,2013-06-30 02:45:00,
2013-06-29 22:50:00,77.8,73.3,29.68,SE,134,0.0,1.0,86,0.00,,---,0.00,VWS V14.01,2013-06-30 02:50:00,
2013-06-29 22:55:00,77.7,73.5,29.68,SE,134,0.0,1.0,87,0.00,,---,0.00,VWS V14.01,2013-06-30 02:55:00,
2013-06-29 23:00:00,77.6,73.4,29.68,SE,134,0.0,1.0,87,0.00,,---,0.00,VWS V14.01,2013-06-30 03:00:00,
2013-06-29 23:05:00,77.5,73.3,29.68,SE,129,0.0,1.0,87,0.00,,---,0.00,VWS V14.01,2013-06-30 03:05:00,
2013-06-29 23:10:00,77.4,73.2,29.68,ESE,122,0.0,1.0,87,0.00,,---,0.00,VWS V14.01,2013-06-30 03:10:00,
2013-06-29 23:15:00,77.4,73.2,29.68,ESE,122,0.0,1.0,87,0.00,,---,0.00,VWS V14.01,2013-06-30 03:15:00,
2013-06-29 23:20:00,77.4,73.2,29.68,ESE,122,0.0,1.0,87,0.00,,---,0.00,VWS V14.01,2013-06-30 03:20:00,
2013-06-29 23:25:00,77.3,73.1,29.69,ESE,122,0.0,1.0,87,0.00,,---,0.00,VWS V14.01,2013-06-30 03:25:00,
2013-06-29 23:30:00,77.2,73.4,29.69,SE,135,0.0,1.0,88,0.00,,---,0.00,VWS V14.01,2013-06-30 03:30:00,
2013-06-29 23:35:00,77.1,73.3,29.69,SE,135,0.0,1.0,88,0.00,,---,0.00,VWS V14.01,2013-06-30 03:35:00,
2013-06-29 23:40:00,77.0,73.2,29.69,SE,136,0.0,1.0,88,0.00,,---,0.00,VWS V14.01,2013-06-30 03:40:00,
2013-06-29 23:45:00,77.0,73.2,29.69,SE,128,0.0,1.0,88,0.00,,---,0.00,VWS V14.01,2013-06-30 03:45:00,
2013-06-29 23:50:00,76.9,73.1,29.69,SE,128,0.0,1.0,88,0.00,,---,0.00,VWS V14.01,2013-06-30 03:50:00,
2013-06-29 23:55:00,76.8,73.0,29.69,SE,129,0.0,1.0,88,0.00,,---,0.00,VWS V14.01,2013-06-30 03:55:00,